sat.trackr.live / text

‹ back to catalog

SINAH 1

NORAD 28893 · 2005-043D

PAYLOAD ACTIVE UNKNOWN

§ Identity

Operator
Country
IRAN
Launch date
2005-10-27
Launch site
PLMSC
Launch vehicle
Mass (kg)
RCS (m²)
0.71

Purposes: earth_obs

External: N2YO · Heavens-Above · Gunter

§ Orbital elements

Epoch: 2026-09-19T21:46:22.911168Z

Period
98.35 min
Inclination
98.2994°
Eccentricity
0.0013988
Mean motion
14.64211236 rev/d
Perigee alt
669.7 km
Apogee alt
689.5 km
Semi-major
7,057.7 km
B*
4.2963e-5
RAAN
37.8588°
Arg perigee
344.7426°
Mean anomaly
15.3353°
Rev number
11,438

§ Raw data

SINAH 11 28893U 05043D   26262.90720962  .00000177  00000+0  42963-4 0  99972 28893  98.2994  37.8588 0013988 344.7426  15.3353 14.64211236114388

JSON: /api/v1/satellites/28893 · /tle

For live sub-satellite position, see the globe view (requires WebGL).

§ Visibility from observer

Set your observer location to see the next 7 days of passes ≥ 10°. The values pass through the URL so the page stays shareable.

No JS? Fill the form by hand. The geolocation button needs JavaScript.